Regional Weather Roundup
Issued by NWS

Home | Current Version | Previous Version | Graphics & Text | Print | Product List | Glossary Off
Versions: 1 2 3 4 5 6 7 8 9 10 11 12 13 14 15 16 17 18 19 20 21 22 23 24 25 26 27 28 29 30 31 32 33 34 35 36 37 38 39 40 41 42 43 44 45 46 47 48 49 50

000
ASUS43 KLSX 160707
RWRMO

WEATHER SUMMARY FOR MISSOURI
NATIONAL WEATHER SERVICE SPRINGFIELD MO
200 AM CDT WED APR 16 2014

NOTE: "FAIR" INDICATES FEW OR NO CLOUDS BELOW 12,000 FEET WITH NO
       SIGNIFICANT WEATHER AND/OR OBSTRUCTIONS TO VISIBILITY.
       CURRENT SKY AND/OR WEATHER CONDITIONS ARE NOT AVAILABLE FOR
       CHILLICOTHE AND FARMINGTON.

MOZ001>031-035>038-043-044-053-054-160800-
...NORTHERN AND WESTERN MISSOURI...

CITY           SKY/WX    TMP DP  RH WIND       PRES   REMARKS
KANSAS CTY INT CLEAR     46  25  43 S22       29.98S
KANSAS C DTWN  CLEAR     48  25  40 S18G24    30.00F
LEE`S SUMMIT   PTCLDY    45  25  45 S14G20    30.02S
ST JOSEPH      CLEAR     46  28  49 S17G24    29.96F
CHILLICOTHE      N/A     43  25  49 S9        30.04F
KIRKSVILLE     PTCLDY    38  25  59 S14       30.07S WCI  30

$$
MOZ066>068-077>081-088>096-101>105-160800-
...SOUTHWEST MISSOURI...

CITY           SKY/WX    TMP DP  RH WIND       PRES   REMARKS
SPRINGFIELD    CLEAR     41  24  51 S13       30.11F
JOPLIN         CLEAR     44  25  47 SE12      30.08F

$$
MOZ032>034-039>042-045>050-055>058-069>072-160800-
...CENTRAL MISSOURI...

CITY           SKY/WX    TMP DP  RH WIND       PRES   REMARKS
COLUMBIA       CLEAR     37  23  56 SE10      30.12F WCI  30
JEFFERSON CITY PTCLDY    39  24  55 E10       30.14F
ROLLA          PTCLDY    38  21  50 SE14      30.13F WCI  30
SEDALIA        PTCLDY    41  26  55 SE13      30.08F
WHITEMAN AFB   PTCLDY    43  23  44 S10       30.06F
OSAGE BEACH    MOCLDY    39  21  48 S6        30.15S

$$
MOZ051-052-059>065-160800-
...EAST CENTRAL MISSOURI...

CITY           SKY/WX    TMP DP  RH WIND       PRES   REMARKS
ST LOUIS INTL  MOCLDY    41  22  46 SE12      30.22S
SPIRIT OF STL  CLEAR     39  21  48 S6        30.20S
ST CHARLES     CLEAR     37  27  67 S12       30.21R WCI  29

$$
MOZ072>076-082>087-097>100-106>115-160800-
...SOUTH CENTRAL AND SOUTHEAST MISSOURI...

CITY           SKY/WX    TMP DP  RH WIND       PRES   REMARKS
CAPE GIRARDEAU CLEAR     34  29  82 SE3       30.28R
FARMINGTON     PTCLDY    34  21  60 SE6       30.24F WCI  29
POPLAR BLUFF   CLEAR     37  32  82 MISG      30.25S
WEST PLAINS    CLEAR     38  25  59 SE6       30.19F

$$



USA.gov is the U.S. government's official web portal to all federal, state and local government web resources and services.